ISS DEB [SPX-28 IPA FSE]

Last updated on Thu May 23 2024 00:02:08 GMT+0000 (Coordinated Universal Time)

1 57212U 98067VP 24143.44140116 .07439138 12454-4 35699-3 0 9992 2 57212 51.6078 38.8780 0005882 256.2665 278.8784 16.42826151 52079

Satellite not in orbit